Simultaneous Nadir Overpasses (SNOs) Predictions

Prediction of SNOs between NOAA-20 and PACE Satellite Orbit:

Table of predicted SNOs for the next 14.0 days since TLE Epoch: 10/12/2024
Index Date (NOAA-20) Time (NOAA-20) Lat,Lon (NOAA-20) SZA (NOAA-20 ) Date (PACE) Time (PACE) Lat,Lon (PACE) SZA (PACE ) Distance(km) Time Diff (sec)
1 10/12/2024 04:27:47 -79.91,-105.00 90.80 10/12/2024 04:28:20 -79.91,-104.93 90.82 1.30 33
2 10/12/2024 05:18:24 79.65, 64.77 88.76 10/12/2024 05:17:22 79.65, 64.66 88.80 2.43 62
3 10/14/2024 08:03:29 79.88, 21.40 89.93 10/14/2024 08:04:17 79.88, 21.30 89.92 2.10 48
4 10/14/2024 08:54:07 -79.68,-169.47 90.40 10/14/2024 08:53:20 -79.68,-169.53 90.38 1.30 47
5 10/16/2024 11:39:12 -79.92, 147.06 89.23 10/16/2024 11:40:13 -79.92, 147.03 89.25 0.73 61
6 10/16/2024 12:29:52 79.75, -44.02 90.50 10/16/2024 12:29:17 79.75, -43.97 90.50 1.01 35
7 10/18/2024 15:14:56 79.97, -87.33 91.63 10/18/2024 15:16:07 79.96, -87.26 91.59 1.47 71
8 10/18/2024 16:05:35 -79.80, 81.55 88.65 10/18/2024 16:05:11 -79.80, 81.66 88.65 2.28 24
9 10/20/2024 19:41:15 79.74,-151.78 92.01 10/20/2024 19:41:00 79.75,-151.91 92.03 2.78 15
10 10/22/2024 23:16:56 -79.75, -25.83 87.23 10/22/2024 23:16:48 -79.76, -25.91 87.22 1.58 8



Historial Predications of SNOs between NOAA-20 and PACE
